Wind_Speed
6 7 8 9 9 9 7 7 8 9 9 8 8 7 7 7 6 6 6 5 5 5 5 6 6 6 6 7 7 8 8 8 8 7 7 7 7 7 7 7 7 7 7 6 6 6 6 6 6
4 4 5 6 9 4 3 4 6 8 8 8 7 7 7 6 5 5 4 4 4 4 4 5 5 6 6 7 7 7 8 8 7 7 7 7 7 6 6 6 6 6 6 5 5 4 4 4 4
3 2 2 4 4 2 2 2 3 5 6 6 5 5 4 4 4 3 3 3 3 3 4 5 6 6 7 7 8 8 8 8 8 7 7 7 7 6 6 6 6 6 5 5 4 4 3 3 3
5 4 2 0 1 2 3 3 2 1 2 2 3 2 2 2 2 2 2 2 3 3 4 5 6 7 7 7 8 8 8 8 8 8 8 8 8 7 7 7 7 6 6 6 5 5 4 4 3
9 7 5 4 5 4 4 5 5 4 3 1 1 0 0 1 1 2 2 3 4 4 4 5 6 7 7 8 8 9 9 9 9 9 9 9 9 9 8 8 8 8 7 7 7 6 6 6 5
12 11 9 10 9 8 7 6 6 6 5 3 2 2 1 1 2 2 3 4 5 5 6 6 7 7 8 9 9 9 10 10 10 11 11 11 11 11 10 10 10 10 10 10 9 9 9 8 8
16 15 15 14 13 11 9 8 8 8 7 5 4 3 3 3 3 4 5 5 6 7 7 8 9 9 10 11 11 12 12 12 13 13 13 13 13 13 14 13 13 13 13 13 12 12 12 11 11
19 18 17 17 16 14 11 9 8 8 7 5 4 4 4 4 5 6 7 8 9 10 11 12 12 13 14 14 15 15 15 16 16 16 16 16 16 16 17 17 17 16 16 16 16 15 15 15 14
21 20 19 20 18 16 13 10 9 8 8 6 6 5 5 7 7 9 11 12 13 14 15 16 17 18 18 19 18 18 19 19 19 20 20 21 20 20 20 20 20 20 19 19 19 19 19 19 19
22 22 23 22 20 18 15 12 10 9 9 8 8 8 8 9 11 12 14 16 17 18 19 20 20 21 22 22 22 22 22 23 23 24 24 24 24 24 24 24 24 24 24 23 23 23 23 23 23
24 24 24 22 22 19 17 15 13 11 11 11 10 11 12 13 15 16 18 19 20 21 22 23 23 24 24 24 24 24 25 25 26 27 27 27 28 28 29 29 29 28 28 28 28 27 27 27 27
25 25 25 24 23 21 20 18 16 14 15 14 13 14 15 17 18 20 21 22 23 24 25 25 26 26 26 26 26 26 26 27 27 28 29 30 31 31 32 32 32 32 32 32 32 32 32 31 31
27 27 26 25 24 23 22 21 20 19 18 17 17 17 18 20 22 24 25 26 27 28 28 28 28 28 27 26 26 26 26 27 28 29 29 30 31 31 33 33 34 35 35 35 36 36 36 36 35
29 27 27 27 27 25 24 24 23 23 21 20 21 21 22 24 26 27 29 30 30 30 30 30 29 28 27 26 26 26 27 28 28 29 30 30 29 31 32 34 34 35 36 36 37 38 39 38 38
29 28 28 29 29 28 26 26 27 25 25 25 25 25 26 28 29 30 31 32 32 32 31 30 29 28 27 27 26 26 26 27 27 28 28 28 29 29 30 32 33 35 35 36 37 38 39 40 40
30 29 28 31 31 30 28 28 32 28 28 28 28 29 30 31 31 32 33 33 34 33 32 31 30 29 28 27 26 27 27 27 27 27 27 26 26 27 28 29 31 32 34 35 36 37 38 40 41
29 29 30 32 32 31 31 33 35 31 31 31 32 32 33 33 33 33 34 34 34 34 33 32 31 30 28 28 28 28 27 26 26 25 24 24 24 25 25 26 28 30 32 33 35 36 37 39 40
26 28 30 32 34 33 33 35 36 35 35 35 34 34 34 33 33 33 34 34 34 34 34 34 33 31 30 29 28 27 26 25 24 23 22 22 22 22 23 24 26 28 30 32 34 35 37 38 39
26 27 28 33 34 34 35 36 37 37 37 36 35 34 33 32 32 33 33 34 34 35 35 35 34 33 32 29 28 26 25 24 22 21 20 20 21 22 23 24 25 27 29 31 33 35 37 38 39
20 22 24 29 32 32 34 35 36 36 35 34 33 31 31 30 31 32 33 34 35 36 37 37 36 34 32 29 26 25 24 22 21 20 19 19 20 21 22 23 25 27 29 31 33 35 37 38 39
14 16 19 23 26 27 29 28 31 32 32 31 31 31 30 31 32 33 35 36 37 37 38 37 35 34 32 28 27 25 23 22 21 20 21 21 21 22 22 24 25 27 29 31 33 35 36 37 38
10 15 17 19 19 19 24 19 25 29 28 30 30 31 31 32 34 35 35 36 37 37 36 35 34 33 32 30 28 26 24 24 23 23 23 23 23 23 24 25 26 27 29 31 33 35 36 37 38
12 13 15 16 17 17 19 17 20 27 26 28 29 30 31 31 32 33 34 34 34 33 33 34 34 34 33 31 30 28 28 27 27 26 26 26 26 26 26 26 27 28 30 31 33 34 36 37 38
12 12 13 13 13 13 17 15 18 24 23 23 24 25 25 26 26 28 29 30 31 32 33 34 35 35 34 33 32 32 32 31 30 30 29 29 28 28 27 27 28 30 31 32 33 34 35 36 37
11 10 10 10 10 11 16 14 18 19 18 19 20 21 21 23 24 26 28 30 32 33 34 36 37 37 36 35 35 35 35 34 34 33 32 31 30 30 29 29 30 31 32 33 34 34 34 35 36
10 10 10 11 11 12 16 16 17 16 17 18 19 20 22 24 25 27 30 31 33 35 37 38 38 38 38 37 37 37 37 37 36 36 35 34 32 32 31 31 31 32 33 33 34 34 34 34 34
10 9 11 12 12 13 12 18 18 17 18 20 21 23 24 26 28 30 31 33 35 37 38 39 40 41 41 41 40 39 39 38 38 37 37 36 35 34 33 33 33 33 34 34 34 33 33 33 33
9 10 11 11 12 12 14 17 21 19 21 23 25 28 30 31 33 35 36 37 39 41 42 42 43 44 44 44 44 43 42 41 41 40 39 38 37 36 36 34 34 34 34 34 34 33 33 33 32
11 11 12 13 15 16 16 20 23 24 26 28 30 33 35 37 39 40 41 42 43 44 45 46 47 48 48 48 48 47 47 46 45 44 43 41 40 38 37 37 36 36 36 35 35 34 33 33 32
13 14 15 17 19 21 22 27 25 28 30 32 34 36 38 40 42 44 45 46 47 48 49 50 51 51 52 52 53 53 53 52 50 48 47 46 45 43 41 40 39 38 37 36 36 34 33 33 32
Wind_Direction
92 76 69 69 73 73 94 113 119 115 110 110 108 105 101 94 87 82 74 66 61 52 46 40 34 27 19 11 6 5 9 15 20 24 27 30 34 37 40 40 39 36 34 35 39 46 49 51 53
109 85 70 65 71 64 80 109 117 117 116 114 113 110 104 94 86 75 61 48 39 31 26 20 11 2 357 353 350 351 353 356 360 3 5 8 11 14 16 16 17 18 18 19 23 28 33 38 43
166 140 69 57 63 49 27 57 99 115 117 120 118 114 108 96 84 63 44 25 13 8 7 2 353 346 343 341 338 338 341 343 344 345 344 345 348 349 349 350 352 355 356 357 357 358 359 4 12
209 205 218 310 304 334 338 343 353 59 120 131 129 118 101 91 72 37 3 341 337 344 350 347 343 338 337 335 333 331 331 332 332 333 331 329 329 330 329 330 332 334 334 333 330 328 325 321 320
226 225 233 245 249 274 313 318 309 305 284 256 222 161 83 45 5 339 323 319 321 327 337 339 336 332 330 328 326 324 325 325 324 324 322 319 317 316 314 315 315 315 314 313 310 307 303 299 294
235 233 232 239 249 258 278 295 297 293 287 281 270 259 282 319 324 326 323 321 322 324 331 332 328 325 322 321 320 320 319 318 317 316 315 312 310 307 306 304 303 302 300 298 295 294 291 288 284
239 237 236 242 249 254 265 279 286 290 284 274 272 271 286 297 312 319 321 320 322 323 323 324 321 316 312 311 312 313 311 310 309 309 307 305 303 301 299 297 296 294 292 290 287 286 283 280 278
244 242 244 246 248 251 257 268 278 279 275 268 263 272 288 298 308 313 314 315 316 316 313 311 310 308 307 305 303 304 304 303 302 301 300 298 296 294 293 292 290 288 287 285 283 282 280 278 276
247 245 244 245 246 250 253 260 267 269 267 269 267 272 285 300 305 309 310 311 310 308 307 305 304 304 302 301 300 300 299 299 298 297 296 294 292 289 288 287 285 283 282 281 279 279 279 278 277
246 245 246 250 250 252 252 252 256 260 261 268 270 276 289 298 304 307 308 309 308 306 304 303 301 300 299 298 297 296 295 294 294 293 292 291 289 287 286 285 283 281 279 278 277 276 276 276 276
246 245 249 252 252 253 251 248 249 256 262 269 275 283 292 298 303 307 307 308 308 306 304 302 300 299 298 298 296 294 292 292 291 291 290 289 286 285 283 283 281 280 278 276 274 273 274 274 274
245 246 247 249 251 251 250 249 248 252 259 269 277 285 293 299 302 304 305 306 306 305 304 302 300 299 299 297 294 292 291 290 289 288 288 287 285 283 282 280 279 279 278 276 273 272 272 273 273
243 243 245 247 248 249 249 248 250 254 260 267 276 284 290 294 297 300 301 302 303 303 303 301 300 299 298 295 293 292 292 290 288 287 287 287 285 283 281 280 278 278 277 275 273 272 271 271 271
243 242 243 244 246 247 249 251 254 257 263 270 276 281 286 289 292 294 296 298 300 300 300 301 302 300 297 294 293 293 293 292 290 288 288 287 286 284 282 281 280 280 279 277 275 273 272 272 272
241 240 240 242 244 247 250 254 257 260 264 269 273 277 281 284 286 289 292 294 296 297 298 300 301 301 298 295 295 295 294 293 292 290 289 288 287 285 283 283 281 279 280 280 279 276 274 273 273
240 238 238 242 242 246 249 253 258 260 263 266 269 273 277 280 282 284 287 290 292 294 296 299 300 299 298 296 295 296 295 294 292 292 291 290 289 288 287 287 285 285 284 283 282 280 278 275 275
241 238 237 242 243 245 247 250 258 261 262 265 268 271 274 277 278 279 283 286 289 291 294 296 297 297 297 297 296 296 295 294 294 294 293 292 291 292 292 291 289 289 288 287 286 284 281 279 278
241 239 241 243 246 246 248 252 258 260 262 265 268 271 272 273 274 276 279 283 286 289 291 293 295 296 296 297 296 295 294 294 293 293 294 295 296 296 297 297 296 294 292 290 288 286 284 283 281
245 243 244 246 249 249 251 254 258 261 264 267 269 269 270 270 271 273 276 280 283 287 289 290 293 294 296 295 294 294 293 292 291 291 293 296 297 298 299 301 301 300 298 296 292 288 286 284 283
250 248 248 251 252 253 255 258 261 264 266 268 269 269 269 269 269 272 275 278 281 284 286 289 291 293 294 293 292 292 292 291 291 292 294 296 298 299 300 301 302 301 300 298 295 292 288 286 283
256 251 252 255 259 262 263 267 269 267 267 267 266 267 267 267 269 271 274 278 281 283 285 287 289 291 292 292 292 291 290 290 291 294 296 297 298 299 300 302 303 303 302 301 298 294 291 287 284
269 264 265 266 268 268 270 267 274 274 270 269 268 268 268 270 272 274 276 278 280 282 284 285 287 290 292 292 292 290 290 291 291 292 293 295 296 298 301 303 304 305 305 304 301 297 293 290 285
273 279 279 279 278 276 278 273 267 277 276 274 274 273 274 276 276 276 277 279 280 282 283 284 285 288 290 291 291 291 290 290 289 289 290 291 293 294 298 301 303 305 307 306 304 300 296 291 287
287 291 295 297 294 285 278 276 267 277 282 281 281 281 280 280 281 280 280 280 280 281 282 284 285 287 289 290 290 290 289 288 287 287 287 288 290 291 294 299 301 304 306 307 306 305 300 294 288
297 300 307 305 299 286 288 286 271 287 287 287 287 287 285 284 282 281 281 280 280 281 282 284 285 287 287 288 288 287 287 287 286 286 286 286 287 289 292 295 299 301 304 306 307 306 304 299 292
293 292 287 281 281 282 296 294 292 293 293 292 290 288 285 284 283 281 279 279 279 280 281 282 283 284 284 285 285 284 284 284 285 285 285 286 286 287 289 292 295 298 301 303 305 305 305 302 296
304 297 287 289 294 294 288 292 296 296 294 292 289 287 285 284 284 282 281 280 278 279 280 281 282 283 283 283 283 282 282 283 283 284 285 285 286 286 288 290 293 295 298 300 302 303 304 302 298
309 304 300 297 293 290 289 296 294 295 289 287 286 285 284 283 282 281 280 280 279 279 279 280 280 281 282 282 282 282 282 282 282 283 283 284 285 286 287 289 290 292 295 297 298 300 301 300 297
314 311 305 298 295 293 288 283 288 291 289 287 286 285 284 283 282 280 279 279 279 278 278 278 279 279 280 280 281 281 281 281 281 282 283 283 284 285 286 288 289 290 292 293 295 296 298 298 295
311 312 309 304 302 300 300 293 297 293 292 291 289 288 286 285 283 282 281 280 279 278 278 277 277 277 277 278 279 280 280 281 281 282 282 282 283 285 286 287 288 289 289 289 291 292 294 294 292
Height
5929 5929 5930 5931 5933 5934 5934 5933 5933 5932 5931 5931 5930 5930 5930 5930 5931 5933 5930 5928 5928 5927 5926 5926 5925 5925 5924 5923 5922 5921 5920 5919 5918 5916 5915 5914 5913 5912 5911 5910 5909 5908 5907 5906 5904 5903 5902 5901 5900
5930 5931 5932 5933 5935 5936 5935 5934 5933 5933 5932 5931 5931 5931 5930 5930 5930 5930 5929 5928 5928 5927 5926 5926 5925 5925 5924 5923 5922 5921 5920 5919 5917 5916 5915 5914 5913 5912 5911 5910 5909 5908 5907 5906 5905 5903 5902 5901 5900
5931 5932 5933 5934 5935 5936 5935 5934 5933 5933 5932 5932 5931 5931 5930 5930 5930 5929 5929 5928 5928 5927 5926 5925 5925 5924 5924 5923 5922 5921 5919 5918 5917 5916 5914 5913 5912 5911 5910 5909 5908 5907 5906 5905 5904 5903 5902 5901 5900
5932 5933 5934 5935 5935 5935 5935 5934 5933 5932 5932 5931 5931 5930 5930 5929 5929 5929 5928 5927 5927 5926 5925 5924 5924 5924 5923 5922 5921 5920 5919 5917 5916 5915 5914 5913 5912 5911 5910 5909 5908 5907 5906 5905 5904 5903 5902 5901 5900
5931 5933 5935 5935 5935 5935 5934 5934 5933 5932 5932 5931 5930 5930 5929 5929 5928 5928 5927 5926 5926 5925 5924 5923 5923 5922 5922 5921 5920 5919 5917 5916 5915 5914 5913 5912 5910 5909 5908 5907 5906 5905 5904 5904 5903 5902 5901 5900 5899
5930 5932 5934 5935 5934 5934 5934 5933 5933 5932 5931 5930 5930 5929 5928 5928 5927 5927 5926 5925 5925 5924 5923 5922 5921 5921 5920 5919 5918 5917 5916 5914 5913 5912 5911 5910 5909 5908 5907 5906 5905 5904 5903 5902 5901 5900 5899 5898 5897
5929 5930 5931 5932 5933 5933 5933 5933 5932 5931 5930 5930 5929 5928 5927 5927 5926 5926 5925 5924 5923 5923 5922 5921 5920 5919 5918 5917 5916 5915 5914 5912 5911 5910 5909 5907 5906 5905 5904 5903 5902 5901 5900 5900 5899 5898 5897 5896 5895
5926 5929 5929 5930 5931 5931 5932 5932 5931 5930 5929 5929 5928 5927 5926 5926 5925 5924 5924 5923 5922 5921 5920 5919 5918 5917 5916 5915 5913 5912 5911 5910 5908 5907 5906 5904 5903 5902 5901 5900 5899 5898 5897 5896 5895 5895 5894 5894 5893
5922 5926 5927 5927 5928 5929 5929 5930 5929 5929 5928 5927 5926 5926 5925 5924 5924 5923 5922 5921 5920 5919 5918 5917 5916 5914 5913 5912 5910 5909 5908 5906 5905 5903 5902 5900 5899 5898 5897 5896 5895 5894 5893 5892 5892 5891 5891 5890 5889
5919 5922 5923 5923 5925 5926 5927 5927 5927 5927 5927 5926 5925 5924 5923 5922 5922 5921 5920 5919 5917 5916 5915 5914 5912 5911 5910 5908 5907 5905 5904 5902 5900 5899 5897 5896 5894 5893 5892 5891 5890 5889 5888 5887 5887 5886 5886 5885 5885
5915 5917 5918 5919 5921 5922 5923 5924 5925 5925 5925 5924 5923 5922 5921 5920 5919 5918 5917 5916 5914 5913 5912 5910 5909 5907 5906 5904 5903 5901 5899 5897 5896 5894 5892 5891 5889 5888 5886 5885 5885 5884 5883 5882 5881 5880 5880 5879 5879
5911 5912 5913 5915 5916 5918 5919 5920 5921 5922 5922 5921 5921 5920 5919 5917 5916 5915 5913 5912 5911 5909 5908 5906 5904 5903 5901 5899 5898 5896 5894 5892 5890 5888 5887 5885 5883 5882 5881 5879 5878 5877 5877 5876 5875 5874 5874 5873 5873
5906 5907 5909 5910 5911 5913 5915 5916 5917 5918 5918 5918 5917 5917 5915 5914 5913 5911 5910 5908 5907 5905 5903 5901 5899 5897 5896 5894 5892 5890 5888 5886 5884 5882 5881 5879 5877 5876 5874 5873 5872 5870 5869 5869 5868 5867 5867 5866 5866
5900 5903 5904 5905 5907 5909 5911 5912 5913 5913 5914 5914 5913 5913 5912 5910 5909 5907 5906 5904 5902 5900 5898 5896 5894 5892 5890 5888 5886 5884 5882 5880 5878 5876 5874 5872 5871 5869 5868 5866 5865 5863 5862 5861 5860 5860 5859 5859 5858
5895 5898 5900 5900 5902 5904 5907 5908 5908 5908 5909 5909 5909 5908 5907 5906 5904 5903 5901 5899 5897 5895 5893 5891 5889 5887 5884 5882 5880 5878 5876 5874 5872 5870 5868 5866 5864 5862 5861 5859 5858 5856 5854 5853 5852 5852 5851 5850 5849
5890 5893 5896 5895 5897 5899 5904 5905 5901 5903 5904 5904 5904 5903 5902 5901 5899 5898 5896 5894 5892 5889 5887 5886 5883 5881 5878 5876 5874 5872 5870 5867 5865 5863 5861 5859 5857 5856 5854 5852 5851 5849 5847 5846 5845 5843 5842 5841 5840
5885 5888 5890 5890 5892 5894 5897 5897 5895 5897 5898 5898 5898 5897 5896 5895 5894 5892 5890 5888 5886 5884 5882 5880 5877 5874 5872 5870 5868 5866 5864 5861 5859 5857 5855 5853 5851 5849 5847 5846 5844 5842 5840 5838 5837 5835 5833 5832 5831
5880 5883 5884 5885 5885 5889 5890 5890 5890 5890 5891 5891 5891 5891 5890 5889 5888 5886 5884 5882 5880 5878 5876 5873 5870 5868 5866 5864 5862 5860 5857 5855 5853 5851 5849 5847 5845 5843 5841 5839 5837 5835 5833 5831 5829 5827 5825 5824 5823
5874 5877 5879 5879 5880 5883 5883 5883 5883 5883 5884 5884 5884 5884 5883 5883 5882 5880 5878 5876 5874 5871 5869 5866 5864 5862 5860 5858 5856 5854 5851 5849 5847 5845 5843 5841 5839 5837 5835 5833 5831 5828 5826 5824 5821 5819 5817 5816 5814
5871 5873 5874 5874 5875 5876 5876 5877 5877 5877 5877 5878 5877 5877 5877 5876 5875 5873 5871 5869 5867 5864 5862 5859 5857 5855 5853 5851 5849 5847 5845 5843 5841 5839 5837 5836 5834 5831 5829 5827 5824 5822 5819 5816 5814 5811 5809 5807 5805
5868 5870 5870 5870 5870 5871 5871 5872 5871 5870 5870 5870 5870 5870 5869 5869 5867 5866 5864 5862 5859 5857 5855 5853 5850 5848 5846 5844 5843 5841 5839 5837 5835 5833 5831 5829 5827 5825 5823 5820 5818 5815 5812 5809 5806 5803 5800 5798 5796
5866 5865 5865 5865 5866 5868 5867 5869 5866 5863 5864 5863 5863 5863 5862 5861 5859 5858 5856 5854 5852 5850 5847 5845 5843 5841 5839 5838 5836 5834 5832 5831 5829 5827 5825 5823 5820 5818 5816 5813 5811 5807 5804 5801 5797 5794 5791 5788 5787
5862 5861 5861 5861 5861 5862 5862 5863 5864 5857 5857 5856 5856 5855 5854 5853 5852 5850 5848 5846 5844 5842 5840 5838 5835 5834 5832 5830 5828 5827 5825 5824 5822 5820 5818 5816 5813 5811 5809 5806 5803 5800 5797 5793 5789 5786 5782 5779 5777
5858 5858 5858 5858 5858 5859 5857 5858 5858 5851 5850 5849 5848 5847 5846 5845 5844 5842 5840 5838 5836 5834 5832 5830 5828 5826 5824 5823 5821 5819 5818 5816 5814 5812 5810 5808 5806 5803 5801 5798 5795 5792 5789 5785 5781 5778 5774 5770 5767
5857 5857 5858 5858 5858 5857 5852 5852 5850 5847 5845 5844 5843 5841 5840 5839 5837 5835 5833 5831 5828 5826 5824 5822 5820 5818 5816 5814 5813 5811 5809 5807 5806 5804 5802 5800 5797 5795 5793 5790 5787 5784 5781 5777 5773 5769 5765 5761 5758
5855 5855 5856 5855 5855 5854 5849 5847 5845 5842 5841 5839 5838 5836 5834 5832 5830 5828 5826 5823 5821 5818 5815 5813 5811 5808 5806 5805 5803 5801 5800 5798 5796 5794 5792 5790 5788 5786 5784 5781 5778 5775 5772 5769 5765 5761 5757 5753 5749
5852 5851 5851 5850 5849 5848 5848 5843 5840 5838 5836 5834 5832 5830 5828 5826 5823 5821 5818 5815 5813 5809 5807 5804 5801 5799 5796 5794 5792 5791 5789 5787 5785 5784 5782 5780 5777 5775 5774 5771 5769 5766 5763 5760 5756 5753 5749 5745 5741
5850 5849 5847 5847 5845 5845 5845 5841 5838 5834 5831 5829 5826 5823 5821 5818 5815 5812 5809 5806 5803 5800 5797 5794 5790 5788 5785 5782 5780 5778 5776 5775 5773 5772 5770 5768 5766 5764 5763 5761 5759 5756 5753 5750 5747 5744 5740 5737 5733
5848 5847 5845 5843 5842 5840 5839 5840 5833 5829 5826 5822 5819 5816 5813 5809 5806 5802 5799 5796 5792 5789 5785 5782 5779 5776 5772 5769 5767 5765 5763 5761 5759 5758 5757 5755 5754 5753 5751 5750 5748 5746 5743 5740 5738 5735 5731 5728 5725
5845 5843 5842 5840 5837 5835 5832 5832 5827 5822 5819 5815 5811 5808 5804 5800 5795 5791 5787 5783 5779 5776 5772 5768 5765 5762 5758 5755 5752 5750 5747 5746 5744 5743 5742 5741 5740 5740 5739 5738 5736 5735 5732 5730 5728 5725 5722 5720 5717